OneWeb SL0409

operational
NORAD ID: 50488 Int'l Des: 2021-132 Owner: ONEWEBN Country: UK Constellation: oneweb
LEOCIRCULARPOLARONEWEB_TYPE

OneWeb SL0409について

説明を読み込み中...

リアルタイム位置

3D地球を読み込み中...

次回通過

高度履歴

Altitude vs Time

uPlot chart will show altitude changes over time

軌道要素

1 50488U 21132V 25296.80982819 .00000372 00000-0 10130-2 0 9992
2 50488 87.8845 68.1086 0001728 87.7793 272.3532 13.11417686184606
Epoch: Oct 23, 2025 • Age: 22 hours

現在のステータス

高度 1244.4 km
速度 7.23 km/s
衛星直下点 -67.30°S, 133.54°E
打ち上げ日 Dec 27, 2021
運用期間 3.8 years
タイプ internet

技術仕様

分類 Payload
質量 148.00 kg
乾燥質量 140.00 kg
総質量 148.00 kg
長さ 1.30 m
直径 1.00 m
スパン 5.00 m
形状 Trapezoid+2 pan
製造者 ONEWUS
バスタイプ ARROW
フェーズステータス In Orbit
所有者/国 ONEWEBN/UK

大規模コンステレーション

Loading constellations...